Wind_Speed
10 10 10 10 10 9 8 6 5 5 4 3 3 4 4 4 5 5 6 7 8 7 6 5 6 7 7 9 10 9 9 8 8 8 6 5 6 6 7 8 8 8 8 9 9 9 9 8 7 7 9 9 10 10 12 13 13 14 16 18 20 21 21 20 21 22 26 26 25 24 24 26 25 24 26 26 26 26 26 24 24 24 25 25 25 25 26 26
10 9 9 9 8 7 7 6 5 5 4 3 3 4 5 5 5 5 6 7 6 6 6 6 7 7 7 8 7 7 7 6 6 6 5 5 5 6 7 7 7 8 8 8 8 9 9 9 9 8 9 10 11 12 13 14 14 15 17 19 20 20 19 19 21 22 24 25 24 23 24 25 25 25 26 26 25 26 26 23 22 23 22 22 23 24 26 26
8 8 8 8 7 7 7 7 7 7 5 4 4 6 5 4 4 4 4 4 5 6 6 7 7 6 6 5 5 5 5 5 4 4 5 5 5 6 7 7 7 7 8 8 8 8 9 9 9 9 10 11 12 13 14 15 15 16 17 19 19 18 19 19 20 21 22 24 23 22 24 24 23 24 25 26 26 24 22 20 21 21 18 17 18 21 23 23
8 8 8 8 7 7 7 7 7 7 6 6 6 6 5 4 4 3 3 3 5 6 7 7 7 7 6 5 5 4 4 3 2 3 4 5 5 5 6 6 6 7 8 8 8 8 9 9 10 10 11 12 13 14 14 15 15 16 16 17 18 18 19 17 18 20 20 22 22 22 23 23 22 23 24 25 26 21 17 19 21 21 19 19 19 20 22 22
7 7 8 8 8 8 7 7 7 6 6 6 6 5 4 4 4 3 3 4 5 6 6 7 7 7 6 6 5 5 4 3 2 4 4 4 4 5 5 5 6 7 7 8 9 9 9 10 10 11 11 12 13 13 14 14 15 16 15 16 17 18 18 16 18 19 19 20 20 21 23 23 23 24 24 25 24 19 19 21 22 23 23 23 24 24 25 24
7 8 8 8 8 8 7 7 6 6 5 5 5 4 3 3 3 4 4 5 6 6 6 6 6 6 6 6 6 5 5 4 4 4 5 4 5 5 6 6 6 7 8 8 9 10 10 11 11 11 12 12 12 13 13 14 15 15 15 15 16 17 17 16 16 17 17 18 19 22 23 23 23 23 23 22 20 19 23 24 25 26 26 26 27 27 27 27
8 8 8 7 7 7 7 6 5 5 4 4 4 3 3 3 4 4 5 6 6 6 6 6 6 6 6 6 6 4 3 3 4 5 5 6 6 6 6 7 7 8 9 9 9 10 11 11 12 12 12 12 12 12 13 13 14 15 14 14 14 15 15 15 15 16 18 19 20 22 23 21 22 24 22 19 19 22 23 23 24 24 22 23 23 22 23 23
8 8 7 7 7 7 6 5 5 5 4 3 3 3 3 3 4 5 6 6 5 5 5 5 6 6 6 6 4 3 2 2 3 4 5 6 6 6 7 7 8 9 9 9 9 10 10 10 11 11 11 11 11 11 11 12 13 13 12 12 12 12 13 14 16 18 18 19 20 21 21 21 23 23 19 18 19 19 19 18 18 19 19 20 21 21 21 22
8 7 7 7 7 6 6 5 5 4 3 3 2 2 2 3 4 5 5 5 4 4 5 5 5 5 5 4 3 2 3 3 4 5 5 6 6 7 8 8 8 9 9 8 9 9 10 10 11 10 10 10 10 11 10 11 11 11 11 12 12 11 13 16 17 18 18 18 19 21 20 18 19 18 14 15 16 13 12 14 16 19 20 20 21 21 22 23
8 7 7 6 6 5 5 4 3 3 2 2 1 1 2 3 4 4 4 3 4 5 5 5 5 5 4 4 3 3 4 5 5 6 6 6 7 7 7 7 8 8 9 9 9 10 10 10 11 10 10 10 10 11 10 11 12 11 12 14 13 13 15 17 17 17 17 17 18 19 17 13 14 14 11 11 12 11 11 14 17 18 19 19 20 21 22 23
9 7 7 6 5 4 4 3 3 2 2 1 1 3 4 4 4 4 3 3 4 5 5 4 4 4 4 5 5 4 5 6 7 7 6 6 6 6 7 7 8 9 9 9 10 10 11 11 10 9 10 11 12 12 11 13 14 13 14 14 11 14 16 16 17 16 15 16 15 15 12 9 12 12 9 9 11 13 14 14 16 16 17 17 17 18 21 23
9 7 6 5 5 4 3 3 2 2 2 3 3 4 4 4 3 3 3 4 5 4 4 5 5 6 6 6 6 7 7 7 7 8 8 7 7 8 9 10 10 10 10 10 10 11 11 12 11 11 13 14 15 13 12 15 15 14 16 14 9 11 15 15 14 12 13 13 12 12 10 7 10 9 9 11 12 15 16 16 17 18 19 18 18 18 19 22
9 8 7 6 5 4 3 2 3 3 4 4 4 4 4 4 4 4 4 5 5 5 5 6 6 8 8 7 9 10 10 9 9 10 10 10 10 11 12 11 10 9 10 10 10 11 13 14 14 15 15 15 15 13 13 16 15 15 16 15 10 8 10 11 11 10 12 14 13 13 10 7 7 8 12 15 15 17 17 19 21 22 23 22 22 21 21 21
9 8 7 6 5 4 3 3 4 4 4 5 5 5 4 5 5 6 6 6 7 7 7 7 8 9 10 11 12 12 13 13 13 13 13 12 11 11 11 11 9 10 10 10 11 12 14 16 17 17 16 15 15 13 15 15 13 14 13 11 12 12 11 12 11 11 13 15 15 15 14 12 7 7 13 18 18 19 19 22 23 24 24 23 22 22 21 20
10 9 8 7 6 5 5 5 5 5 5 5 5 6 6 7 7 7 7 8 8 9 9 9 9 10 12 14 14 15 15 14 13 13 13 13 13 12 12 12 12 13 13 13 14 14 15 17 17 16 14 14 13 14 15 11 10 13 12 12 14 16 15 14 14 14 16 17 18 17 15 15 10 7 11 16 19 20 20 23 23 22 21 19 19 18 17 17
10 9 8 7 7 7 7 7 7 6 6 6 7 8 8 8 8 9 9 9 10 10 10 11 11 11 13 15 15 14 12 11 12 13 14 14 15 15 14 14 15 16 16 16 15 14 15 16 15 14 14 14 12 12 11 9 11 13 15 17 17 18 18 18 17 16 19 21 21 19 17 17 13 10 12 15 18 19 19 20 19 18 16 15 15 14 13 12
10 10 9 9 9 9 9 8 8 7 8 8 9 9 9 9 10 10 10 11 11 12 12 13 12 12 13 14 13 12 13 14 14 14 14 14 16 16 16 15 16 17 18 16 14 13 14 14 14 12 12 13 12 13 12 11 15 16 17 19 20 21 21 23 21 17 21 25 23 20 18 19 15 11 14 15 16 15 16 16 15 15 14 13 13 11 11 10
11 11 11 12 11 11 10 9 9 9 10 11 11 10 10 10 10 10 10 11 12 12 14 14 12 12 14 14 13 15 17 17 16 16 15 14 15 15 16 14 14 16 16 13 12 12 12 12 13 9 9 13 15 18 18 15 17 17 18 20 22 23 23 27 25 21 26 28 25 23 20 20 16 11 14 13 11 13 14 13 13 12 13 13 13 12 11 10
13 13 13 13 12 11 11 11 11 10 11 11 11 11 11 12 12 12 12 11 11 13 15 15 14 15 17 17 18 18 18 18 18 18 18 16 14 14 14 12 11 13 13 12 11 10 11 12 11 11 14 19 20 20 20 17 16 15 17 20 24 25 25 27 25 26 33 31 27 26 22 22 17 12 14 10 9 13 13 12 13 12 11 11 12 12 11 10
15 15 14 13 13 12 12 12 12 12 12 12 12 13 14 14 14 14 13 12 14 18 17 16 16 17 16 18 19 18 17 17 16 17 16 13 12 12 11 10 10 11 10 10 10 9 10 12 14 18 21 21 21 20 19 18 17 17 17 20 24 26 28 26 24 31 36 33 31 27 24 22 16 13 12 10 12 15 16 14 12 11 11 11 12 12 12 11
15 15 14 14 13 13 13 14 16 17 17 17 16 16 16 16 16 16 15 16 19 22 21 19 18 15 13 14 16 18 17 15 14 15 13 10 10 10 9 10 10 9 8 8 10 9 9 14 20 22 22 21 21 20 20 19 19 18 18 21 24 26 30 26 26 34 34 33 32 25 24 18 13 10 8 10 13 16 17 15 14 13 13 13 14 14 13 12
15 14 14 15 15 16 17 18 19 20 20 19 17 16 17 17 18 18 18 21 22 22 22 21 18 15 12 11 14 17 14 9 8 10 10 9 11 11 11 11 9 9 9 10 13 12 11 18 22 22 23 22 21 20 20 20 20 20 18 23 26 27 32 31 31 35 31 32 30 24 24 13 13 8 6 8 12 12 13 15 17 18 16 16 16 17 17 16
16 16 17 17 17 18 18 19 19 20 20 20 18 18 19 19 20 19 20 22 22 21 21 19 17 16 12 10 12 15 13 9 8 10 11 12 13 14 14 13 11 11 11 11 15 16 16 19 20 22 25 24 23 21 20 20 20 20 19 25 29 29 31 35 39 36 30 30 24 24 24 7 12 10 4 6 11 9 10 14 17 18 15 14 14 16 18 20
17 18 18 18 18 18 19 19 19 20 19 19 18 18 19 19 20 20 21 22 20 20 19 18 17 17 14 11 11 14 16 14 13 14 14 14 15 16 16 15 14 13 13 13 16 18 20 19 19 23 26 26 24 22 22 22 23 21 20 27 32 30 29 35 39 37 33 25 17 25 20 9 9 10 8 7 11 12 13 14 16 15 13 11 11 14 17 19
19 18 18 18 18 18 18 17 18 19 19 18 16 15 16 16 16 16 17 19 19 19 18 18 17 18 16 13 10 13 17 17 16 16 16 16 16 17 18 18 17 15 15 14 14 17 20 19 20 22 27 28 26 26 26 26 27 24 22 28 32 30 31 35 34 34 33 23 18 24 13 8 9 13 15 14 13 17 20 21 21 17 14 14 14 16 17 19
19 18 17 16 16 16 16 16 17 17 15 13 12 11 10 9 10 10 9 12 18 20 19 18 17 17 17 16 13 11 13 19 19 18 18 17 17 18 18 20 20 19 18 15 12 14 19 21 21 21 27 30 28 29 27 27 29 25 25 30 30 30 33 33 30 29 26 22 23 20 7 7 12 18 21 23 20 20 23 23 23 19 17 18 17 19 21 22
17 15 15 15 14 14 14 14 13 11 9 9 8 5 4 9 9 6 3 5 13 19 19 17 16 17 18 18 17 14 14 17 18 18 19 19 19 18 17 19 23 23 21 19 14 11 15 21 21 20 26 30 31 30 27 28 29 26 28 29 29 33 33 31 28 24 21 24 25 14 7 9 14 19 24 28 27 25 25 25 24 23 22 21 21 22 23 25
14 13 13 12 11 11 11 10 9 7 6 5 1 4 7 7 6 5 3 4 9 15 16 16 15 16 18 18 18 19 19 17 18 21 22 21 19 17 17 19 22 25 24 22 18 13 14 21 22 21 26 30 30 29 27 28 28 28 28 26 31 34 31 30 23 17 22 24 18 10 6 7 14 25 28 30 34 31 27 26 26 26 26 25 26 26 27 28
11 10 9 9 8 9 8 6 5 4 3 2 3 4 3 3 4 4 5 5 8 13 14 15 14 14 16 17 17 19 19 19 21 22 21 21 19 17 19 21 22 25 25 23 20 15 15 21 23 22 26 29 27 25 25 26 26 27 25 26 32 30 30 30 16 15 23 16 9 10 8 4 14 31 36 34 33 29 26 24 24 26 27 28 30 30 33 33
8 7 7 6 6 6 5 3 3 2 2 1 1 1 1 1 1 2 4 5 8 12 13 13 15 15 13 14 16 18 19 20 21 20 19 20 20 18 19 20 22 23 22 21 20 16 16 21 23 22 26 30 27 25 25 24 24 24 23 30 35 31 32 23 9 16 18 8 10 16 14 8 10 24 33 28 23 22 23 22 22 25 27 30 34 36 39 42
8 7 6 5 5 4 3 2 3 2 2 2 2 1 2 1 2 3 4 4 7 10 12 14 16 16 15 16 18 19 20 20 19 18 19 20 20 20 22 25 26 26 24 24 22 18 16 20 24 22 26 31 29 27 26 23 23 22 25 33 34 32 32 15 8 15 7 6 19 23 21 15 9 17 23 19 16 16 19 22 24 27 30 34 38 41 45 48
10 10 8 7 7 6 6 7 7 7 7 6 6 5 6 7 8 8 4 2 4 7 12 15 17 18 18 19 20 20 20 22 22 21 23 25 27 29 31 33 33 30 27 26 25 22 17 18 24 23 26 32 32 33 32 28 25 22 28 34 24 18 20 10 7 9 3 13 28 26 21 16 17 22 23 21 20 17 16 21 25 30 35 39 44 47 50 53
13 12 11 10 10 9 9 10 9 10 9 9 9 8 9 10 8 7 6 4 5 7 12 14 17 20 20 20 21 21 21 23 23 22 23 26 29 32 32 32 33 30 26 23 23 27 23 20 24 25 26 31 32 33 35 35 29 23 27 29 16 7 7 6 6 4 6 22 36 31 19 14 17 21 23 24 22 19 18 21 26 34 40 45 50 53 55 59
15 13 13 13 13 13 14 13 13 12 11 12 11 10 13 14 8 6 9 8 7 9 12 14 16 18 21 22 23 22 22 23 23 22 21 22 26 30 30 30 32 32 30 23 19 23 21 17 23 26 26 31 31 28 30 32 26 22 26 22 15 13 7 5 5 4 9 23 37 33 17 13 16 15 17 21 21 19 20 24 31 39 45 50 54 56 61 65
15 15 15 15 15 15 15 14 14 13 11 11 10 11 14 12 7 8 10 8 7 8 10 13 15 16 20 22 22 23 23 22 23 23 23 22 24 30 30 31 34 34 33 26 18 17 18 19 22 22 25 31 28 25 28 29 22 21 25 19 20 25 16 12 14 18 17 16 22 25 20 23 27 23 24 26 25 22 22 31 41 46 52 57 57 60 66 69
18 17 17 16 15 14 13 13 12 11 11 7 5 13 18 13 11 13 12 12 12 11 9 11 14 16 19 20 21 22 22 23 23 23 25 24 22 27 30 31 33 34 33 27 20 17 18 23 23 20 27 31 25 24 25 23 22 22 20 20 27 29 18 15 17 20 17 9 11 19 25 29 27 25 29 26 24 28 34 45 51 53 59 61 59 64 71 71
19 19 18 17 16 14 11 10 8 9 11 6 5 16 20 16 16 16 15 15 16 15 14 13 15 18 20 20 21 21 21 23 24 23 25 24 21 24 29 30 31 32 31 26 22 20 21 26 26 24 30 31 26 26 22 18 21 19 18 26 31 25 18 15 9 7 8 6 10 18 27 33 24 18 23 24 29 41 48 53 55 59 63 61 59 66 71 71
19 19 18 17 16 14 13 10 8 9 8 5 12 20 19 17 18 16 16 16 16 17 18 17 17 18 20 21 21 21 21 23 25 23 23 23 21 21 26 29 29 29 29 25 24 25 24 25 26 29 33 31 28 29 26 22 21 16 20 29 25 15 15 17 10 7 8 6 8 16 26 32 25 19 27 34 40 46 50 54 57 60 60 56 59 66 69 69
17 16 16 16 14 14 13 10 10 9 7 9 17 21 18 18 18 16 16 16 16 17 18 18 18 17 19 21 21 22 21 22 25 24 22 23 22 20 24 28 28 27 26 26 25 27 25 19 21 32 36 32 31 31 29 29 25 22 26 29 23 14 13 20 20 14 10 7 8 12 17 23 24 25 33 37 39 46 53 57 58 56 53 53 62 69 68 67
13 12 14 15 13 12 14 13 10 8 9 15 21 20 19 19 17 16 16 16 16 17 17 17 17 18 19 20 21 22 21 20 23 23 21 23 23 21 23 26 27 25 24 25 25 28 27 18 22 38 41 33 32 30 27 28 25 25 31 30 28 25 21 24 24 17 11 7 6 7 10 20 27 28 30 33 40 51 56 56 56 54 50 55 66 70 67 65
11 11 14 15 13 14 16 13 10 10 14 20 22 20 19 18 16 16 15 15 16 15 16 17 17 18 19 20 20 22 21 18 20 22 21 23 24 22 23 26 26 24 24 26 26 28 27 20 24 40 41 34 31 29 26 23 20 26 32 28 28 29 25 18 15 18 19 13 11 10 9 21 30 26 28 38 49 55 54 53 56 52 50 61 71 70 64 63
11 12 15 14 13 15 12 9 12 16 18 20 19 18 18 16 15 15 14 14 15 14 16 17 17 18 19 20 20 21 21 19 18 21 22 22 23 22 23 24 23 24 25 25 26 28 25 21 29 38 38 33 29 27 25 21 23 30 31 28 27 22 19 12 7 15 23 19 20 17 11 22 30 25 33 48 54 54 52 54 55 51 56 69 73 68 62 60
11 14 16 13 14 14 9 9 15 17 18 19 18 17 16 15 15 14 13 13 13 14 15 16 17 18 18 20 20 20 22 19 17 21 22 20 21 21 22 22 21 23 26 24 26 27 21 20 29 37 41 42 37 31 27 23 30 38 35 33 31 21 20 18 12 17 21 19 19 12 9 25 34 34 46 56 53 51 51 54 55 57 65 73 72 67 62 60
12 16 17 15 16 15 11 13 16 16 18 18 17 16 15 14 14 13 13 13 13 14 14 16 17 18 18 19 20 21 23 20 19 21 21 20 20 21 21 20 20 23 26 26 27 27 22 18 21 24 28 35 35 33 32 33 37 38 36 36 34 27 26 24 20 19 15 18 23 13 12 33 46 50 58 60 55 54 54 56 60 64 70 75 73 68 64 62
11 15 17 17 16 13 13 17 15 15 17 17 15 15 14 13 12 12 12 13 14 14 14 15 17 18 18 19 20 21 22 21 19 19 20 19 19 20 19 17 20 25 25 26 28 28 26 20 16 14 10 12 17 21 27 35 36 33 33 34 33 30 27 24 22 17 12 25 35 25 24 44 58 59 61 61 57 55 55 60 65 68 73 75 72 68 65 63
11 14 17 18 16 13 15 18 15 14 15 14 14 14 12 12 12 12 12 13 13 14 15 15 17 18 17 18 19 20 20 20 19 18 18 18 18 20 18 14 19 25 25 26 30 31 31 23 17 17 16 17 21 22 24 27 28 30 33 33 30 27 24 23 21 18 21 30 37 34 35 50 61 62 61 58 55 54 58 65 70 73 74 72 69 67 64 59
12 14 14 14 14 14 16 17 15 14 13 12 12 12 11 11 11 11 13 13 13 14 15 15 18 18 18 20 21 20 19 18 17 18 17 16 17 18 16 14 20 25 26 28 31 33 33 28 24 27 29 27 24 20 19 22 26 33 34 31 28 25 24 25 22 24 30 26 30 44 49 49 57 62 59 55 54 57 63 70 73 73 71 69 68 65 59 55
13 14 13 13 13 14 15 15 14 13 12 11 12 12 11 11 11 11 12 13 13 15 15 16 18 19 20 22 22 22 21 19 18 18 17 17 17 16 14 14 20 25 26 28 32 34 34 32 31 35 36 30 20 15 22 30 34 36 33 29 28 25 25 29 28 32 38 29 33 49 51 49 57 60 55 54 56 61 69 73 71 68 68 69 66 59 55 56
14 14 14 13 13 14 13 13 13 12 11 10 11 11 10 11 11 12 12 13 14 15 16 16 18 19 20 22 22 22 23 23 22 21 18 18 18 18 15 13 18 24 25 27 32 35 35 35 35 38 39 30 18 18 31 37 36 32 26 23 26 27 29 31 33 38 43 40 42 49 51 56 60 55 52 55 59 66 72 70 68 67 68 68 62 57 57 58
13 13 13 12 12 12 12 11 11 11 10 10 10 10 10 11 12 13 13 13 14 15 16 17 17 18 20 20 21 21 21 21 22 21 18 17 18 19 16 13 18 23 24 28 32 33 36 38 37 40 41 31 22 28 39 40 33 24 17 19 28 33 33 35 38 42 46 49 53 56 58 61 57 50 53 60 66 71 70 68 69 69 68 66 61 59 60 59
13 13 13 10 10 11 10 10 9 9 9 10 11 10 10 11 13 13 13 14 14 14 16 17 17 18 18 19 19 19 18 18 18 17 16 17 19 18 15 16 21 24 26 30 32 33 37 39 41 43 41 35 34 40 44 41 28 15 15 26 32 32 35 40 42 44 50 56 60 61 59 57 53 54 62 69 71 71 70 70 70 68 66 64 61 58 59 60
13 13 13 10 9 10 10 9 9 8 9 10 10 10 11 12 13 13 13 14 14 14 16 17 18 18 18 18 18 17 17 17 16 14 13 15 19 17 13 16 22 25 28 30 31 34 37 39 42 39 34 36 43 47 47 35 18 12 24 34 31 29 38 48 49 50 54 56 58 60 58 54 57 65 72 75 74 72 72 71 69 67 65 63 61 59 60 64
Wind_Direction
170 169 172 173 176 179 178 181 201 211 201 206 238 264 279 288 288 287 287 292 293 293 295 300 300 296 289 281 277 272 268 269 271 279 292 310 321 328 338 346 345 340 332 323 317 314 312 310 310 311 306 305 303 300 298 295 291 288 283 280 283 290 295 300 301 300 299 299 300 302 303 301 305 308 305 304 304 306 306 307 305 298 294 293 292 289 287 286
169 166 167 169 173 177 179 186 215 236 222 219 255 270 276 278 276 277 275 280 287 287 290 296 297 295 290 281 276 278 276 274 275 280 294 307 309 321 337 343 343 341 335 325 315 307 305 304 304 302 297 297 296 294 293 291 291 288 285 284 290 296 297 299 299 298 298 299 302 305 304 303 308 309 307 306 306 309 312 309 299 294 295 294 294 291 289 288
169 167 168 171 175 179 186 194 210 228 234 233 248 264 268 264 267 271 266 268 279 285 293 299 303 309 307 303 302 302 293 281 285 292 301 306 306 321 334 338 339 338 336 328 319 310 304 303 303 300 297 294 293 293 293 292 292 289 288 290 296 298 296 300 301 299 300 302 304 306 303 306 310 308 309 308 307 312 315 306 295 294 294 288 288 291 292 293
167 170 172 176 182 185 193 202 209 219 228 230 235 249 256 257 259 260 262 271 283 294 303 308 316 321 322 327 323 319 307 286 313 329 312 309 310 320 329 329 329 330 328 323 319 313 305 302 300 298 294 291 291 292 293 293 293 292 292 296 299 298 299 305 302 301 303 302 305 307 307 311 313 311 311 309 311 314 303 293 292 293 291 286 285 287 290 291
164 169 174 178 185 190 196 205 213 216 221 227 231 236 238 243 249 260 278 289 297 303 307 314 323 328 332 337 335 332 320 282 308 340 324 311 308 312 317 314 315 318 315 315 313 308 302 298 294 292 289 288 290 293 295 297 296 296 299 301 301 302 305 306 302 303 303 303 308 311 312 316 315 312 310 310 315 310 290 287 291 292 293 291 291 289 286 284
156 164 171 176 182 188 194 202 210 214 216 218 219 221 222 234 251 267 284 298 306 309 316 327 335 341 344 344 342 339 328 292 283 311 317 310 304 306 309 306 307 308 305 306 307 305 302 299 297 296 295 295 296 300 301 300 299 301 304 305 303 304 305 304 305 306 306 311 316 315 316 317 313 308 308 310 309 295 290 294 296 297 299 300 302 301 297 294
151 159 167 173 179 184 189 195 203 207 208 208 205 205 216 238 257 273 291 308 318 323 331 340 346 349 348 345 344 342 342 317 283 291 301 301 304 308 309 307 306 304 303 305 308 309 308 305 305 304 304 304 304 304 304 303 303 305 307 306 304 303 305 308 312 312 315 320 320 316 315 315 310 306 307 305 296 293 301 306 306 311 317 321 325 326 324 321
150 155 162 169 176 181 184 189 195 198 198 200 201 209 234 260 281 303 320 331 333 333 341 349 350 349 348 347 344 340 343 329 300 298 300 304 311 312 308 305 304 305 305 310 316 316 314 314 314 312 312 311 310 309 309 309 308 312 316 316 314 312 314 317 317 318 320 321 317 312 312 313 309 307 309 303 302 312 321 323 326 335 341 341 343 343 339 337
154 156 162 169 174 178 180 183 186 186 186 194 209 235 280 309 327 346 359 1 348 343 351 352 350 350 350 345 330 334 342 331 329 327 319 320 319 314 309 306 309 313 313 319 328 328 327 328 324 321 321 320 320 317 316 318 320 327 334 333 329 325 322 321 320 319 318 317 313 311 315 315 306 308 315 313 324 343 346 350 354 352 350 346 345 342 337 336
165 165 167 172 173 170 167 168 169 167 175 194 230 319 351 1 16 33 35 20 358 352 351 351 355 352 351 353 343 354 354 345 349 345 337 334 326 319 316 314 322 327 330 336 341 341 340 338 331 329 333 334 334 331 328 333 337 342 344 338 330 326 323 322 322 320 318 316 314 322 326 315 306 317 330 331 341 358 1 1 356 350 348 344 344 345 341 340
174 174 172 170 163 157 155 156 158 160 163 115 47 33 37 46 61 67 45 16 2 355 353 2 7 2 10 14 14 24 14 5 4 358 352 346 337 334 335 340 347 350 350 351 351 350 350 347 341 344 349 347 345 342 339 344 344 340 340 338 331 329 324 321 320 317 317 316 319 337 337 315 319 330 345 349 347 355 357 352 348 345 344 340 343 350 347 345
173 174 169 162 157 154 155 157 145 122 86 66 59 59 73 84 86 68 34 20 14 14 22 30 33 33 34 30 36 41 32 26 21 15 11 6 4 2 2 3 1 360 358 357 358 357 357 358 355 355 356 352 349 345 340 342 341 335 336 335 328 324 317 316 320 318 322 325 328 345 347 330 337 347 358 359 355 355 352 347 349 350 348 348 348 350 349 348
165 166 166 162 160 157 153 136 102 86 74 73 75 83 94 85 69 53 42 42 44 48 49 49 50 50 50 50 53 50 44 41 37 34 29 24 21 14 12 10 2 359 357 356 0 2 5 6 0 356 357 352 345 344 339 336 335 333 334 332 331 335 325 325 334 335 335 332 329 340 352 348 341 351 351 349 354 356 351 350 353 356 356 355 353 352 353 352
157 158 160 158 152 144 129 108 94 90 90 92 93 89 78 65 61 58 60 67 68 68 65 60 58 59 59 55 54 51 46 41 35 32 30 29 27 22 19 14 6 0 356 356 359 1 5 4 358 358 358 351 344 344 339 334 334 334 337 342 349 1 360 349 345 344 343 336 332 333 343 349 337 331 332 331 346 358 358 358 360 2 2 1 0 358 0 4
151 149 147 143 137 130 118 111 106 102 102 100 93 85 78 73 72 73 76 78 77 73 71 68 65 64 61 55 49 42 38 34 31 28 25 24 23 23 20 17 13 3 356 355 354 357 0 358 358 360 355 349 347 344 338 337 344 344 351 359 357 360 0 353 342 337 342 342 339 333 336 353 347 322 321 319 335 353 1 9 13 14 12 11 10 8 10 16
141 136 134 129 127 122 117 114 111 109 105 100 97 93 90 88 87 86 84 84 85 80 76 72 65 61 58 52 44 39 37 31 28 27 24 22 18 16 13 11 7 1 355 350 351 355 356 356 359 358 352 353 351 345 345 353 360 1 4 359 354 355 355 353 342 332 339 343 343 338 335 353 353 330 322 322 341 357 0 7 12 6 2 360 359 360 3 9
129 127 126 125 124 121 118 117 114 112 109 105 103 100 99 97 94 92 91 91 89 82 75 66 59 59 56 51 44 41 37 29 26 24 22 20 16 11 7 3 359 357 353 350 353 354 352 355 358 355 353 357 356 360 11 10 360 2 3 357 351 350 350 350 345 336 339 339 340 338 336 353 1 349 342 349 6 3 345 345 346 340 335 331 330 332 340 352
128 128 127 125 123 119 118 115 111 110 107 107 106 105 104 102 100 98 94 89 84 80 71 59 56 59 53 46 40 37 31 25 22 20 20 17 11 5 0 359 354 352 353 357 359 352 353 354 352 347 350 3 10 14 17 7 353 351 352 353 349 347 349 350 347 344 341 338 340 336 336 357 9 8 11 23 22 345 324 325 319 313 312 310 312 314 324 341
126 126 124 122 120 119 118 115 113 112 110 109 108 108 104 102 100 94 88 87 83 77 67 58 56 56 49 40 33 29 23 17 14 13 10 5 1 360 360 0 355 353 360 7 1 356 360 355 353 1 5 10 14 14 12 1 351 347 343 347 347 344 348 350 347 347 343 337 341 337 336 356 10 26 28 24 353 323 307 303 297 293 298 301 303 306 315 329
124 124 122 121 121 121 120 118 116 112 109 108 107 106 102 100 97 91 90 90 77 67 60 54 50 50 47 41 33 26 17 10 9 9 2 358 2 7 8 9 3 0 6 8 5 8 6 3 15 18 12 10 10 9 6 358 354 349 343 347 349 343 344 348 346 346 343 335 338 338 334 353 22 44 24 343 317 303 289 293 297 287 288 297 300 303 311 321
121 120 119 120 120 120 119 116 112 109 109 108 107 105 101 99 94 86 84 76 65 58 53 47 43 41 41 39 32 24 15 2 358 3 6 15 23 22 20 15 10 11 17 24 24 21 10 17 26 21 13 10 8 7 3 358 352 348 345 345 349 345 341 345 345 344 342 333 335 335 334 1 55 54 1 311 299 295 291 301 307 297 289 290 291 297 307 309
116 116 117 118 118 118 117 114 112 112 112 110 108 105 101 96 88 80 74 67 60 54 50 43 37 33 34 37 30 24 20 4 354 4 19 37 36 33 31 25 30 36 37 38 32 29 24 26 27 21 15 12 7 4 2 360 352 346 346 344 347 347 340 340 342 343 340 332 334 335 337 18 82 43 346 288 289 294 309 324 321 308 294 288 287 292 299 298
115 115 116 116 118 118 118 118 118 117 114 112 111 106 98 89 80 72 66 62 57 55 52 47 41 36 39 50 41 34 35 41 45 38 42 47 41 40 38 35 41 41 36 33 31 32 31 28 26 21 19 14 6 4 1 359 356 349 348 348 346 345 342 339 338 339 336 333 337 337 338 65 103 27 5 259 274 278 311 328 325 313 304 309 310 304 301 301
114 114 114 117 120 121 123 122 121 118 117 117 114 106 96 84 73 65 59 57 54 53 51 48 46 44 50 60 54 46 43 46 50 47 48 45 41 42 39 38 40 37 31 27 30 33 31 28 26 23 20 14 8 4 358 357 359 354 349 350 345 342 341 338 335 334 333 336 344 338 337 144 143 348 338 285 270 263 281 298 306 308 310 317 313 308 311 314
113 113 116 119 122 123 123 122 122 122 122 121 116 107 95 78 62 55 55 54 51 52 51 46 47 47 51 58 58 53 47 46 47 44 42 39 38 38 37 37 37 35 29 24 30 33 32 28 25 24 19 13 8 2 0 358 356 355 349 345 343 340 338 336 334 331 330 335 341 337 336 174 218 291 306 312 289 267 272 284 296 302 303 302 297 303 314 318
112 114 116 118 121 121 121 124 125 126 127 125 118 107 86 44 24 33 46 47 43 47 47 43 43 43 47 52 53 53 46 41 41 40 35 34 35 32 34 36 36 36 32 24 27 29 28 23 20 22 15 11 7 3 4 359 354 354 346 340 341 340 335 334 333 329 327 327 329 329 306 233 264 279 295 308 304 282 273 280 294 303 308 310 310 310 313 314
113 115 117 120 122 122 126 129 128 129 133 128 117 96 9 342 350 6 21 38 29 32 37 36 38 38 44 50 46 46 46 37 37 40 35 33 33 29 31 35 35 36 31 25 25 21 20 17 14 14 10 9 7 6 4 358 353 349 342 340 341 337 334 335 333 328 324 321 323 319 261 260 280 287 297 302 304 297 284 285 294 304 312 316 318 318 317 319
114 116 121 124 126 130 133 132 133 139 146 142 118 314 316 331 0 25 57 72 19 17 26 29 35 38 42 46 41 44 46 37 34 37 33 32 33 30 32 37 36 35 31 28 27 25 21 15 11 9 8 10 10 7 1 354 349 345 342 342 339 335 333 335 332 327 327 321 319 315 271 264 286 294 299 298 299 299 298 301 304 310 316 318 320 321 321 323
114 117 122 127 133 141 142 146 169 185 199 235 303 319 334 13 45 59 76 76 23 18 25 27 36 42 42 44 43 43 43 39 38 37 32 31 30 30 34 38 37 33 31 30 29 32 28 17 14 11 8 9 9 6 359 352 348 344 342 338 335 334 334 336 332 328 330 314 299 318 304 269 293 298 299 300 301 302 306 310 311 315 320 322 324 323 323 324
112 117 123 134 146 155 162 181 202 215 241 275 321 333 354 353 10 48 65 61 30 28 33 35 43 47 45 44 42 41 41 42 42 38 33 31 27 25 31 34 34 31 29 33 32 30 26 20 16 13 8 6 5 4 1 355 350 346 343 337 335 338 341 338 321 327 330 294 301 326 315 291 290 296 295 298 304 306 309 311 311 316 322 328 331 330 329 328
102 104 106 114 122 124 121 109 102 94 96 112 112 84 65 59 52 62 79 64 33 34 42 45 46 46 44 41 39 37 37 38 38 31 27 26 21 18 23 26 24 22 23 29 32 27 25 22 16 12 8 3 360 1 2 360 355 349 346 345 342 344 347 342 321 336 338 271 311 321 313 295 264 280 285 282 288 295 306 313 317 322 326 332 335 334 333 332
87 86 82 82 86 87 92 99 98 95 100 107 98 89 94 88 66 63 83 59 17 31 42 46 45 42 39 39 38 34 33 34 31 26 25 25 23 24 27 25 20 18 15 16 21 22 25 22 15 12 8 3 358 356 356 359 359 352 350 355 357 351 350 346 326 334 255 284 310 316 312 289 259 271 274 268 274 281 296 311 321 326 328 330 333 334 334 334
83 81 80 83 86 91 98 101 96 90 91 94 92 93 98 91 67 53 62 63 60 49 43 43 41 39 39 37 36 32 32 32 28 27 27 26 27 29 30 26 22 19 12 7 11 13 15 17 12 9 8 5 360 355 354 353 356 355 354 1 10 10 352 328 311 314 284 302 310 314 309 283 271 272 267 264 268 275 296 314 323 327 329 330 333 334 335 336
84 85 87 89 92 94 95 94 89 85 85 87 91 99 94 84 73 69 68 69 78 61 46 45 39 37 37 35 33 29 28 30 27 25 23 21 25 27 26 23 20 17 12 10 11 10 8 3 3 5 5 2 359 356 352 349 352 352 350 356 1 353 335 278 284 286 293 301 305 310 306 289 296 283 267 272 272 278 299 315 321 324 328 331 333 335 337 338
84 84 86 88 90 89 88 87 85 83 82 83 87 91 89 86 81 77 67 59 62 52 46 49 43 39 37 34 31 27 25 26 22 21 20 19 21 21 19 18 15 13 11 10 9 7 358 349 358 5 359 355 355 353 348 349 353 345 342 347 342 335 313 266 273 279 283 290 298 303 297 295 300 293 289 291 286 287 299 310 315 320 325 328 332 337 339 338
84 83 82 81 81 81 83 85 84 80 75 70 80 82 83 90 87 74 67 60 56 51 49 48 40 37 36 31 28 24 22 20 17 17 18 17 18 17 15 14 12 9 8 8 6 1 347 346 0 5 355 354 355 352 350 351 349 341 339 340 333 329 314 283 282 285 289 286 287 295 296 298 300 297 298 297 291 295 301 307 313 319 325 328 332 337 339 336
82 80 79 75 72 72 72 73 75 75 69 56 92 89 86 87 81 74 69 63 58 52 50 45 37 34 31 27 24 20 16 17 16 15 16 15 13 12 11 11 9 6 6 7 5 358 342 341 356 360 353 356 355 351 353 353 348 344 341 337 332 330 321 304 290 294 305 286 282 296 300 301 302 300 302 301 299 301 305 309 316 322 326 328 331 334 335 333
78 76 75 73 71 67 61 54 49 62 74 96 98 91 87 82 76 72 66 61 57 50 45 44 39 33 28 23 21 16 12 14 15 14 16 14 9 7 8 7 5 4 4 4 2 359 348 339 348 355 352 355 357 352 352 352 350 345 337 336 335 330 320 316 314 309 310 294 285 299 302 301 301 303 306 307 307 309 314 318 323 325 325 325 328 331 332 331
75 76 75 71 69 69 66 59 55 66 94 106 94 89 85 80 75 70 65 58 54 48 43 42 36 30 25 20 16 13 12 12 13 14 14 11 6 3 4 3 2 2 1 2 0 359 355 338 335 347 351 354 357 355 351 347 344 337 334 335 335 326 312 313 312 299 290 291 295 304 302 299 302 310 312 314 316 321 324 323 322 321 319 324 329 331 331 332
70 74 76 72 69 69 71 73 74 88 99 90 88 89 85 81 75 68 63 56 51 48 43 37 32 27 20 14 11 10 10 10 11 13 11 7 4 1 1 360 1 2 359 359 359 356 355 342 328 342 352 358 358 355 348 340 334 333 335 337 336 333 328 321 315 309 306 308 309 305 291 294 305 315 316 319 324 325 323 319 315 314 316 326 331 331 331 332
64 65 72 75 69 65 72 80 81 85 88 85 86 87 83 81 75 67 62 53 48 44 37 29 24 20 14 10 8 5 6 8 9 10 7 2 1 1 360 358 360 1 357 357 358 354 353 347 334 340 348 356 355 350 344 337 331 333 336 338 336 335 339 335 319 315 315 303 292 290 282 296 306 315 317 320 325 324 319 314 311 312 318 326 330 330 330 329
60 61 69 73 69 67 70 78 76 76 83 85 85 84 82 78 72 65 58 51 45 36 29 23 15 13 10 6 5 2 3 6 7 7 4 359 359 359 359 0 1 358 355 356 357 354 354 350 342 340 344 352 353 348 344 338 333 333 334 335 334 339 349 346 303 307 312 302 295 290 282 298 306 316 319 321 325 322 316 312 311 314 321 326 328 328 327 327
59 66 72 72 73 73 68 73 79 80 84 84 82 82 78 73 67 60 51 43 36 27 22 16 11 9 6 4 3 1 1 4 4 3 1 358 357 358 360 2 0 355 353 355 355 355 358 354 347 345 344 347 348 345 343 340 336 335 335 336 337 345 352 342 323 318 313 307 310 303 280 298 307 316 319 323 326 321 315 315 316 318 322 325 326 326 325 327
64 73 75 72 73 77 76 75 79 83 84 83 80 77 72 68 61 51 43 34 26 19 12 9 7 5 4 4 2 0 1 2 360 358 359 358 356 357 359 0 358 353 352 353 354 357 2 1 355 351 345 344 345 343 340 338 335 332 329 328 325 325 331 330 333 334 312 301 317 317 281 298 309 318 323 327 328 322 318 319 319 320 322 324 325 325 326 328
68 77 77 73 73 80 84 79 74 77 82 81 77 71 64 60 52 40 32 25 18 10 3 3 4 2 3 4 1 359 359 359 357 357 358 358 355 356 358 357 354 352 352 353 354 356 1 6 8 4 349 329 326 325 325 325 324 323 321 318 313 315 323 332 341 341 313 308 313 302 287 303 314 322 326 329 327 322 320 320 320 320 321 322 324 325 327 328
68 79 82 81 80 79 82 81 74 71 74 74 71 65 55 48 41 30 22 16 9 4 0 1 0 359 1 0 359 358 357 357 357 356 358 358 355 354 355 353 351 352 353 353 354 356 358 3 4 353 338 318 310 311 318 320 318 320 319 314 310 312 319 335 346 337 321 313 305 301 305 311 318 325 328 327 324 320 320 320 320 321 321 323 326 327 327 328
71 80 83 84 84 79 78 78 73 65 62 61 62 58 47 38 28 19 14 8 2 1 1 1 359 359 359 357 357 357 357 359 358 356 359 360 356 353 350 347 350 352 352 353 354 355 355 356 351 342 337 333 329 327 330 328 324 324 321 312 309 310 316 332 345 339 332 316 299 313 322 316 317 325 326 323 322 321 321 320 320 321 323 326 328 328 329 330
73 77 78 79 81 80 76 74 70 61 52 48 51 49 38 26 17 10 5 1 359 1 2 2 0 359 358 357 357 355 355 358 0 359 359 358 356 353 348 347 351 352 352 352 352 351 352 351 345 339 340 345 349 342 334 334 332 329 322 310 307 307 315 329 336 336 334 320 305 316 321 315 317 323 322 320 321 321 320 319 321 323 326 328 330 331 332 333
72 71 71 73 76 75 70 66 64 57 45 36 37 37 26 14 8 4 0 360 0 1 2 2 1 359 357 357 356 355 355 355 355 356 356 357 354 348 346 352 353 350 349 349 349 350 349 347 344 342 342 350 357 340 335 338 335 330 322 312 309 308 311 324 332 335 332 323 316 318 317 316 320 321 318 318 319 319 320 321 324 327 329 331 333 333 334 334
68 68 64 60 66 70 64 56 54 48 37 27 24 23 14 6 4 360 358 0 1 1 1 0 0 358 355 356 357 356 356 353 348 347 349 353 350 344 343 349 349 346 345 348 349 349 347 346 347 346 344 350 352 338 338 342 338 332 325 317 315 313 316 328 337 337 333 327 324 323 319 319 321 320 317 317 319 321 323 325 327 329 330 332 334 334 333 331
60 63 62 51 52 63 57 47 43 33 23 18 16 11 3 0 2 359 357 359 358 359 358 357 357 355 353 356 356 355 354 351 346 344 344 346 347 344 338 338 342 343 345 348 348 347 347 348 350 349 346 347 345 339 341 344 340 334 331 324 322 319 321 329 335 334 331 327 325 322 320 319 320 319 318 320 323 326 326 326 327 329 331 333 333 333 330 327
52 53 57 49 45 54 51 40 34 20 11 10 7 4 359 357 358 356 356 356 355 355 355 353 352 351 351 354 355 356 353 349 348 346 341 343 347 346 334 330 338 342 344 347 346 347 350 351 352 352 344 341 343 340 340 346 348 340 333 327 321 319 320 323 326 328 327 325 323 321 319 319 319 320 322 325 327 327 326 326 327 328 332 334 333 329 326 323
Height
3116 3116 3117 3118 3119 3120 3120 3121 3121 3122 3122 3122 3122 3123 3123 3124 3124 3124 3124 3124 3124 3123 3122 3122 3121 3121 3121 3120 3120 3120 3120 3120 3119 3119 3118 3117 3117 3117 3116 3116 3116 3115 3115 3115 3115 3115 3114 3114 3115 3114 3114 3114 3113 3113 3113 3113 3112 3112 3111 3110 3109 3108 3108 3107 3106 3104 3101 3100 3099 3098 3097 3094 3093 3093 3090 3089 3088 3086 3086 3086 3084 3081 3081 3079 3078 3076 3074 3073
3116 3117 3118 3118 3119 3120 3120 3121 3122 3122 3122 3122 3123 3123 3124 3124 3125 3124 3124 3124 3124 3123 3123 3122 3122 3121 3121 3121 3120 3120 3120 3119 3119 3118 3118 3118 3117 3117 3117 3116 3116 3116 3115 3115 3115 3114 3114 3114 3114 3114 3113 3113 3113 3113 3112 3112 3111 3111 3110 3108 3108 3107 3106 3106 3104 3102 3100 3098 3097 3097 3095 3093 3092 3090 3087 3086 3086 3085 3084 3083 3081 3079 3080 3078 3076 3074 3072 3071
3116 3117 3118 3119 3119 3120 3121 3121 3122 3122 3122 3123 3123 3124 3125 3125 3125 3125 3125 3124 3124 3123 3123 3122 3122 3121 3121 3120 3120 3120 3119 3119 3118 3118 3118 3118 3118 3117 3117 3116 3116 3115 3115 3115 3114 3114 3113 3113 3113 3113 3112 3112 3112 3111 3111 3110 3110 3109 3108 3107 3106 3106 3105 3104 3102 3100 3099 3097 3096 3095 3093 3092 3090 3088 3086 3084 3083 3084 3082 3080 3078 3077 3077 3076 3074 3072 3070 3069
3117 3118 3118 3119 3120 3121 3121 3122 3122 3123 3123 3123 3124 3125 3125 3125 3125 3125 3125 3124 3124 3123 3123 3122 3121 3121 3120 3120 3119 3119 3119 3119 3118 3118 3118 3118 3117 3117 3116 3116 3115 3115 3114 3114 3113 3113 3112 3112 3112 3111 3111 3111 3110 3110 3109 3109 3108 3107 3107 3106 3105 3104 3103 3102 3100 3099 3097 3095 3094 3093 3091 3090 3088 3086 3085 3083 3082 3083 3081 3078 3076 3075 3075 3074 3073 3071 3069 3068
3117 3118 3119 3119 3120 3121 3121 3122 3122 3123 3123 3124 3125 3125 3125 3125 3125 3125 3125 3124 3124 3123 3122 3122 3121 3121 3120 3120 3119 3119 3119 3118 3118 3118 3118 3117 3117 3116 3116 3115 3114 3114 3113 3113 3113 3112 3112 3111 3111 3111 3110 3110 3109 3108 3108 3107 3107 3106 3106 3105 3103 3102 3101 3100 3099 3097 3096 3094 3093 3091 3089 3088 3087 3085 3084 3082 3081 3080 3078 3077 3076 3074 3073 3072 3071 3069 3067 3065
3118 3118 3119 3120 3120 3121 3122 3122 3123 3123 3124 3124 3125 3125 3125 3125 3125 3125 3124 3124 3123 3123 3122 3122 3121 3121 3121 3120 3119 3119 3118 3118 3118 3118 3118 3117 3116 3116 3115 3114 3114 3113 3113 3112 3112 3112 3111 3111 3110 3110 3109 3109 3108 3108 3107 3106 3105 3105 3104 3103 3102 3100 3099 3098 3097 3096 3094 3093 3091 3089 3088 3087 3085 3084 3083 3082 3080 3078 3077 3076 3074 3073 3071 3070 3068 3067 3065 3063
3118 3119 3119 3120 3121 3121 3122 3122 3123 3123 3124 3124 3125 3125 3125 3125 3125 3125 3124 3124 3123 3123 3122 3122 3121 3121 3121 3120 3119 3119 3118 3118 3118 3118 3117 3117 3116 3115 3115 3114 3114 3113 3112 3112 3111 3111 3110 3110 3109 3109 3109 3108 3107 3107 3106 3105 3104 3103 3103 3102 3101 3099 3098 3097 3095 3094 3093 3091 3090 3088 3087 3086 3083 3082 3082 3081 3078 3076 3076 3075 3073 3072 3071 3069 3067 3066 3064 3062
3118 3119 3120 3120 3121 3121 3122 3122 3123 3123 3124 3125 3125 3125 3125 3125 3125 3124 3124 3124 3123 3123 3122 3122 3121 3121 3120 3120 3119 3119 3118 3118 3117 3117 3117 3116 3116 3115 3114 3114 3113 3113 3112 3112 3111 3110 3110 3109 3108 3108 3107 3107 3106 3106 3105 3104 3103 3102 3102 3101 3099 3098 3096 3095 3094 3092 3091 3090 3089 3087 3086 3085 3082 3081 3080 3079 3077 3076 3075 3074 3072 3071 3070 3068 3066 3065 3063 3061
3119 3119 3120 3120 3121 3122 3122 3123 3123 3124 3124 3125 3125 3125 3125 3125 3125 3124 3124 3124 3123 3123 3122 3122 3121 3121 3120 3119 3119 3119 3118 3118 3117 3117 3116 3116 3116 3115 3114 3114 3113 3112 3112 3111 3110 3110 3109 3108 3108 3107 3106 3106 3105 3105 3104 3103 3102 3102 3100 3099 3098 3096 3095 3094 3093 3091 3090 3090 3088 3086 3085 3083 3081 3080 3079 3077 3076 3077 3075 3074 3073 3071 3070 3068 3066 3064 3062 3061
3119 3120 3120 3121 3121 3122 3123 3123 3124 3124 3125 3125 3125 3125 3125 3125 3124 3124 3124 3124 3123 3123 3122 3122 3121 3120 3120 3120 3119 3119 3119 3118 3118 3117 3117 3116 3116 3115 3115 3114 3113 3112 3111 3111 3110 3109 3108 3108 3107 3107 3106 3106 3105 3104 3103 3102 3101 3100 3099 3098 3096 3095 3094 3093 3092 3091 3090 3089 3087 3085 3083 3081 3079 3079 3079 3077 3076 3076 3075 3074 3073 3071 3069 3067 3066 3064 3061 3060
3119 3120 3121 3121 3122 3122 3123 3124 3124 3124 3125 3125 3125 3125 3125 3125 3124 3124 3124 3123 3123 3123 3122 3122 3121 3121 3121 3120 3120 3120 3119 3119 3118 3118 3117 3117 3116 3116 3115 3114 3113 3112 3111 3110 3109 3109 3109 3108 3108 3107 3106 3105 3105 3103 3102 3101 3100 3099 3098 3097 3096 3094 3093 3092 3091 3090 3089 3088 3086 3084 3082 3080 3079 3078 3078 3078 3077 3076 3075 3074 3072 3070 3068 3067 3065 3063 3061 3058
3120 3121 3122 3122 3123 3123 3124 3124 3124 3125 3125 3125 3125 3125 3125 3125 3124 3124 3124 3124 3123 3123 3123 3123 3122 3122 3122 3121 3121 3120 3120 3119 3119 3118 3118 3117 3116 3115 3114 3113 3112 3112 3111 3110 3110 3110 3109 3109 3108 3107 3106 3105 3104 3102 3101 3100 3099 3098 3097 3097 3096 3095 3094 3092 3091 3090 3089 3087 3085 3084 3082 3080 3078 3078 3078 3077 3077 3076 3074 3072 3071 3069 3067 3065 3064 3062 3060 3057
3121 3122 3122 3123 3123 3124 3124 3124 3125 3125 3125 3125 3125 3125 3125 3125 3125 3124 3124 3124 3124 3124 3124 3124 3123 3123 3123 3122 3121 3121 3120 3120 3119 3119 3118 3117 3116 3115 3114 3113 3113 3112 3111 3111 3111 3110 3110 3109 3108 3107 3106 3105 3104 3103 3102 3100 3099 3099 3097 3096 3096 3095 3094 3092 3091 3090 3088 3086 3085 3083 3082 3081 3079 3078 3077 3076 3076 3075 3073 3071 3069 3067 3066 3064 3062 3060 3059 3056
3122 3122 3123 3123 3124 3124 3125 3125 3125 3125 3125 3125 3126 3126 3126 3126 3126 3125 3125 3125 3125 3125 3125 3125 3124 3124 3123 3123 3122 3122 3121 3120 3119 3119 3118 3118 3117 3116 3115 3114 3113 3113 3112 3112 3111 3111 3110 3109 3108 3107 3106 3105 3104 3103 3102 3101 3100 3099 3098 3097 3096 3095 3094 3092 3090 3089 3087 3085 3084 3082 3081 3081 3080 3079 3077 3075 3075 3073 3072 3070 3068 3066 3064 3062 3061 3059 3057 3055
3122 3123 3123 3124 3124 3125 3125 3125 3125 3125 3126 3126 3126 3126 3127 3127 3126 3126 3126 3126 3126 3126 3126 3126 3125 3125 3124 3123 3123 3122 3121 3121 3120 3119 3118 3118 3117 3116 3115 3115 3114 3113 3112 3112 3112 3111 3110 3110 3109 3108 3107 3106 3105 3103 3102 3101 3101 3099 3098 3097 3096 3095 3093 3092 3090 3088 3086 3085 3083 3081 3080 3080 3080 3079 3077 3075 3074 3073 3071 3069 3067 3064 3062 3059 3057 3055 3054 3052
3123 3123 3124 3124 3125 3125 3125 3126 3126 3127 3127 3127 3127 3128 3128 3128 3128 3128 3128 3128 3127 3127 3127 3127 3126 3126 3125 3124 3124 3123 3123 3123 3121 3120 3119 3118 3117 3116 3116 3115 3114 3113 3113 3112 3112 3112 3111 3111 3110 3109 3108 3106 3105 3103 3102 3101 3101 3100 3098 3097 3095 3094 3092 3091 3089 3087 3086 3084 3083 3081 3080 3080 3080 3078 3077 3076 3074 3071 3068 3066 3064 3061 3058 3056 3053 3051 3049 3047
3123 3124 3125 3125 3126 3126 3127 3127 3127 3128 3128 3128 3129 3129 3129 3129 3129 3129 3129 3129 3128 3128 3128 3127 3127 3126 3126 3126 3125 3125 3124 3123 3122 3121 3120 3119 3118 3117 3116 3115 3115 3114 3113 3113 3113 3112 3112 3112 3110 3109 3108 3107 3106 3104 3102 3101 3100 3099 3098 3097 3095 3094 3092 3090 3089 3087 3086 3084 3083 3081 3080 3080 3079 3077 3076 3074 3072 3068 3066 3063 3061 3058 3055 3052 3050 3048 3045 3044
3124 3125 3126 3126 3127 3127 3128 3128 3128 3129 3129 3130 3130 3130 3130 3130 3130 3130 3130 3130 3130 3129 3129 3128 3128 3128 3127 3127 3126 3125 3124 3123 3123 3122 3121 3120 3119 3118 3117 3116 3116 3115 3115 3114 3114 3113 3113 3112 3111 3110 3109 3107 3105 3103 3102 3102 3101 3099 3098 3097 3095 3093 3092 3090 3087 3086 3085 3083 3082 3080 3079 3079 3078 3077 3075 3072 3069 3067 3064 3061 3057 3054 3052 3049 3047 3045 3043 3042
3125 3126 3127 3127 3128 3128 3129 3129 3130 3130 3131 3131 3131 3131 3131 3131 3132 3132 3131 3131 3131 3130 3129 3130 3129 3128 3128 3128 3126 3125 3125 3124 3123 3122 3121 3120 3120 3119 3118 3118 3117 3116 3116 3115 3115 3114 3113 3113 3112 3110 3109 3107 3105 3104 3104 3103 3102 3101 3099 3097 3095 3092 3091 3090 3087 3085 3082 3080 3080 3078 3077 3077 3077 3075 3072 3069 3067 3065 3061 3057 3054 3052 3049 3047 3046 3043 3042 3041
3126 3127 3128 3128 3129 3129 3130 3130 3131 3131 3131 3132 3133 3133 3133 3133 3134 3133 3133 3133 3132 3131 3131 3131 3130 3129 3129 3129 3128 3127 3126 3125 3124 3123 3122 3122 3121 3120 3119 3119 3118 3117 3117 3116 3115 3115 3114 3113 3112 3110 3109 3108 3107 3106 3105 3103 3102 3100 3098 3097 3095 3092 3090 3089 3086 3084 3081 3078 3077 3076 3075 3076 3075 3072 3069 3066 3065 3061 3057 3054 3052 3050 3047 3045 3044 3042 3041 3039
3127 3128 3129 3129 3130 3130 3131 3132 3132 3132 3133 3134 3135 3135 3135 3135 3135 3135 3134 3134 3133 3132 3132 3131 3131 3131 3131 3130 3129 3128 3127 3126 3125 3124 3124 3123 3122 3121 3121 3120 3119 3118 3117 3117 3116 3115 3115 3114 3112 3111 3110 3109 3107 3106 3105 3103 3102 3100 3098 3096 3095 3091 3088 3087 3086 3084 3081 3077 3075 3074 3073 3074 3072 3069 3067 3064 3060 3057 3054 3052 3050 3049 3047 3044 3042 3040 3039 3038
3129 3130 3130 3131 3131 3132 3133 3133 3134 3134 3135 3136 3137 3137 3137 3137 3136 3136 3135 3134 3134 3133 3133 3133 3133 3132 3132 3131 3131 3129 3128 3127 3126 3126 3125 3124 3123 3122 3121 3120 3119 3119 3118 3118 3117 3116 3115 3114 3113 3112 3111 3109 3108 3107 3105 3103 3101 3099 3098 3095 3093 3091 3086 3083 3083 3083 3080 3076 3074 3072 3072 3072 3070 3067 3065 3061 3057 3054 3052 3050 3048 3047 3045 3042 3040 3038 3036 3035
3131 3131 3132 3133 3133 3134 3135 3135 3136 3136 3137 3137 3138 3138 3138 3138 3137 3137 3136 3135 3135 3135 3135 3135 3135 3134 3133 3133 3132 3131 3130 3129 3128 3127 3126 3125 3124 3123 3122 3121 3120 3119 3119 3118 3117 3116 3115 3114 3114 3113 3112 3110 3108 3107 3105 3104 3102 3099 3097 3095 3092 3090 3087 3081 3079 3079 3079 3076 3073 3070 3070 3070 3067 3064 3062 3058 3055 3053 3052 3050 3047 3045 3042 3040 3038 3036 3034 3032
3133 3133 3134 3135 3135 3136 3137 3137 3138 3138 3138 3139 3139 3139 3139 3138 3138 3138 3138 3137 3137 3137 3137 3137 3137 3136 3135 3134 3134 3133 3131 3130 3129 3128 3127 3126 3125 3123 3122 3121 3120 3120 3119 3118 3118 3117 3116 3115 3115 3113 3112 3111 3108 3107 3105 3103 3101 3099 3096 3094 3091 3089 3088 3084 3079 3076 3074 3074 3072 3070 3068 3067 3063 3061 3059 3057 3055 3053 3051 3049 3046 3043 3041 3039 3037 3035 3032 3029
3135 3136 3136 3137 3138 3138 3139 3139 3139 3139 3140 3140 3140 3140 3139 3139 3139 3139 3139 3139 3140 3140 3139 3139 3138 3137 3136 3135 3134 3133 3132 3131 3130 3128 3127 3126 3125 3124 3123 3122 3121 3120 3120 3119 3118 3117 3117 3116 3115 3114 3112 3110 3108 3106 3103 3100 3098 3097 3095 3094 3092 3089 3087 3085 3081 3075 3072 3071 3070 3069 3068 3064 3061 3058 3056 3055 3055 3053 3050 3046 3043 3041 3038 3036 3034 3032 3030 3028
3137 3138 3139 3139 3140 3140 3140 3141 3141 3141 3141 3141 3141 3141 3140 3140 3140 3141 3141 3141 3141 3141 3141 3140 3139 3139 3138 3136 3135 3134 3133 3132 3130 3129 3128 3127 3126 3125 3124 3123 3122 3121 3120 3119 3119 3118 3117 3117 3115 3114 3112 3110 3108 3104 3102 3100 3097 3096 3095 3093 3091 3089 3086 3083 3080 3076 3072 3070 3069 3069 3068 3064 3059 3057 3054 3051 3050 3049 3047 3044 3041 3038 3035 3033 3031 3028 3027 3025
3139 3140 3141 3141 3141 3142 3142 3143 3143 3143 3143 3143 3142 3142 3142 3141 3141 3142 3141 3141 3143 3143 3142 3142 3141 3140 3138 3137 3136 3134 3133 3133 3132 3131 3130 3128 3127 3126 3125 3124 3123 3122 3121 3120 3119 3118 3118 3117 3115 3114 3112 3109 3106 3104 3102 3100 3098 3096 3094 3092 3090 3087 3084 3082 3079 3076 3073 3070 3067 3066 3066 3063 3058 3054 3051 3049 3046 3044 3043 3041 3038 3036 3033 3031 3029 3026 3024 3022
3141 3142 3142 3143 3143 3143 3144 3144 3144 3144 3144 3144 3144 3143 3143 3143 3142 3142 3141 3144 3147 3146 3145 3144 3142 3141 3140 3138 3137 3135 3134 3135 3133 3131 3130 3129 3128 3128 3126 3125 3124 3123 3121 3120 3119 3118 3118 3117 3115 3113 3112 3109 3107 3105 3103 3100 3098 3096 3093 3091 3088 3085 3082 3080 3077 3075 3072 3068 3065 3064 3064 3063 3057 3052 3050 3047 3044 3041 3038 3036 3034 3032 3030 3028 3026 3024 3022 3020
3143 3143 3144 3144 3144 3144 3145 3145 3145 3145 3145 3145 3145 3144 3144 3143 3143 3143 3142 3146 3150 3148 3146 3146 3144 3142 3141 3140 3139 3137 3136 3135 3133 3132 3132 3131 3130 3129 3127 3126 3125 3124 3122 3121 3120 3119 3118 3117 3115 3113 3112 3110 3109 3107 3104 3101 3099 3095 3093 3090 3088 3085 3081 3077 3075 3073 3071 3067 3065 3064 3064 3062 3055 3049 3046 3043 3040 3038 3035 3034 3032 3029 3028 3025 3023 3021 3019 3018
3144 3144 3144 3145 3145 3145 3145 3145 3145 3145 3146 3145 3145 3145 3144 3144 3144 3143 3144 3148 3151 3149 3148 3147 3145 3144 3143 3142 3141 3139 3138 3136 3135 3135 3134 3132 3131 3130 3128 3127 3126 3126 3125 3123 3121 3120 3119 3117 3116 3114 3112 3111 3109 3108 3105 3102 3099 3095 3093 3089 3085 3082 3078 3075 3074 3073 3070 3066 3064 3063 3063 3061 3054 3046 3043 3040 3038 3036 3033 3032 3030 3028 3026 3024 3021 3019 3017 3015
3145 3145 3145 3145 3145 3145 3145 3145 3146 3146 3146 3146 3146 3145 3145 3145 3144 3144 3147 3151 3151 3150 3150 3148 3147 3146 3144 3143 3141 3140 3139 3137 3137 3136 3134 3133 3132 3130 3127 3126 3125 3125 3124 3123 3122 3120 3119 3118 3116 3115 3113 3110 3108 3107 3105 3103 3099 3096 3093 3088 3082 3078 3074 3072 3071 3071 3070 3065 3062 3062 3061 3060 3053 3044 3041 3039 3037 3035 3033 3030 3028 3025 3024 3022 3020 3018 3015 3012
3145 3145 3145 3145 3145 3146 3146 3146 3146 3146 3146 3146 3146 3146 3145 3145 3145 3147 3150 3151 3151 3151 3150 3149 3148 3146 3145 3144 3142 3141 3140 3138 3137 3136 3134 3133 3131 3128 3126 3126 3124 3123 3122 3122 3122 3121 3120 3119 3117 3115 3113 3110 3106 3103 3101 3101 3099 3096 3092 3088 3084 3080 3077 3074 3071 3071 3070 3064 3060 3061 3059 3055 3049 3042 3040 3039 3036 3034 3032 3030 3027 3024 3021 3020 3018 3015 3013 3010
3146 3146 3146 3146 3146 3147 3147 3147 3147 3147 3147 3146 3146 3146 3145 3145 3148 3151 3151 3151 3151 3152 3151 3150 3149 3148 3146 3145 3143 3142 3141 3139 3138 3137 3135 3134 3132 3130 3130 3129 3128 3126 3124 3123 3122 3120 3118 3117 3116 3115 3113 3110 3107 3102 3099 3097 3096 3095 3092 3089 3088 3087 3087 3083 3077 3073 3069 3060 3056 3059 3057 3049 3043 3040 3038 3037 3034 3033 3031 3028 3026 3023 3020 3017 3014 3012 3009 3006
3148 3148 3148 3148 3148 3148 3148 3148 3148 3148 3148 3147 3147 3147 3146 3147 3152 3153 3152 3152 3153 3153 3152 3151 3150 3149 3147 3146 3144 3143 3142 3141 3140 3139 3138 3136 3134 3133 3132 3131 3130 3128 3127 3124 3122 3121 3119 3117 3116 3114 3112 3111 3109 3106 3102 3099 3097 3095 3093 3092 3091 3092 3093 3089 3081 3075 3071 3062 3055 3056 3054 3046 3041 3039 3037 3035 3033 3031 3029 3027 3025 3022 3019 3015 3011 3008 3005 3001
3150 3150 3150 3150 3149 3149 3149 3149 3149 3149 3149 3149 3149 3148 3147 3150 3154 3154 3153 3154 3153 3153 3153 3152 3151 3150 3149 3147 3146 3145 3144 3143 3142 3141 3139 3137 3135 3133 3132 3131 3129 3127 3125 3124 3123 3122 3122 3120 3118 3116 3114 3112 3109 3107 3104 3100 3098 3095 3094 3093 3092 3091 3091 3087 3081 3076 3073 3067 3059 3054 3051 3046 3042 3039 3037 3035 3032 3030 3028 3026 3023 3019 3015 3011 3007 3003 3000 2996
3152 3152 3152 3152 3151 3151 3151 3150 3150 3150 3150 3150 3150 3150 3150 3153 3155 3154 3155 3155 3154 3154 3153 3153 3152 3151 3150 3149 3148 3147 3146 3144 3143 3141 3139 3137 3136 3134 3133 3131 3129 3128 3126 3124 3123 3122 3122 3120 3118 3117 3115 3112 3109 3107 3104 3101 3098 3096 3094 3093 3091 3089 3086 3083 3078 3075 3073 3069 3060 3054 3049 3045 3043 3039 3036 3036 3032 3030 3028 3023 3018 3014 3010 3006 3002 2998 2995 2991
3154 3154 3154 3153 3153 3153 3152 3152 3151 3151 3151 3151 3151 3152 3154 3155 3156 3156 3156 3156 3156 3155 3154 3154 3153 3152 3151 3151 3150 3148 3147 3145 3143 3142 3139 3137 3136 3135 3134 3132 3131 3129 3127 3125 3124 3123 3121 3117 3115 3115 3112 3110 3108 3105 3104 3102 3099 3096 3094 3092 3089 3087 3084 3082 3078 3074 3073 3069 3059 3054 3050 3044 3042 3039 3036 3035 3032 3029 3025 3019 3014 3010 3006 3002 2999 2995 2992 2988
3156 3156 3156 3155 3155 3154 3154 3153 3152 3152 3152 3153 3153 3155 3156 3157 3157 3158 3158 3157 3157 3157 3156 3155 3155 3154 3153 3152 3151 3149 3147 3145 3143 3141 3140 3138 3136 3135 3134 3133 3131 3129 3128 3126 3124 3123 3120 3115 3112 3112 3110 3108 3106 3103 3101 3100 3099 3097 3095 3092 3089 3086 3083 3081 3079 3076 3074 3068 3058 3054 3051 3044 3041 3040 3036 3033 3030 3025 3020 3015 3011 3008 3004 3001 2997 2994 2990 2984
3158 3158 3158 3157 3156 3156 3155 3155 3154 3154 3154 3154 3155 3156 3158 3158 3159 3159 3159 3159 3159 3158 3157 3157 3156 3156 3154 3153 3151 3149 3147 3145 3143 3141 3140 3138 3137 3136 3135 3133 3132 3130 3128 3126 3124 3123 3121 3116 3111 3110 3110 3107 3103 3101 3098 3097 3096 3095 3093 3091 3090 3089 3086 3083 3080 3078 3075 3069 3060 3055 3050 3042 3039 3038 3036 3032 3027 3022 3018 3013 3010 3008 3004 3000 2996 2991 2985 2979
3160 3160 3159 3159 3159 3158 3157 3156 3157 3157 3156 3157 3157 3158 3160 3160 3161 3161 3161 3160 3160 3159 3159 3158 3157 3156 3155 3153 3152 3150 3148 3146 3144 3142 3141 3139 3138 3136 3135 3133 3132 3130 3128 3127 3125 3122 3121 3118 3112 3107 3106 3105 3102 3100 3098 3096 3094 3092 3090 3088 3086 3086 3085 3081 3078 3077 3075 3071 3065 3057 3046 3038 3038 3038 3034 3030 3026 3022 3018 3013 3009 3006 3002 2998 2993 2987 2980 2975
3162 3162 3161 3160 3160 3159 3158 3159 3160 3159 3158 3159 3160 3160 3161 3162 3162 3162 3162 3162 3161 3161 3160 3159 3158 3157 3155 3154 3152 3150 3148 3146 3145 3143 3141 3140 3138 3136 3135 3133 3131 3130 3128 3127 3125 3123 3120 3119 3114 3106 3104 3104 3103 3102 3099 3096 3094 3092 3090 3088 3085 3083 3082 3081 3077 3075 3074 3072 3067 3059 3044 3035 3037 3037 3033 3029 3025 3021 3017 3011 3005 3001 2998 2994 2989 2983 2977 2972
3164 3163 3162 3162 3162 3161 3161 3162 3162 3161 3161 3162 3162 3162 3163 3163 3164 3164 3163 3163 3162 3162 3161 3160 3158 3157 3155 3154 3152 3150 3149 3147 3145 3144 3142 3140 3138 3137 3135 3134 3131 3130 3128 3126 3125 3123 3120 3118 3114 3108 3105 3105 3104 3100 3098 3096 3094 3092 3090 3088 3086 3083 3082 3082 3078 3073 3071 3067 3063 3058 3045 3034 3035 3034 3029 3027 3023 3018 3013 3007 3001 2997 2993 2988 2982 2977 2973 2969
3166 3164 3164 3164 3164 3163 3164 3165 3164 3164 3164 3164 3164 3165 3165 3165 3165 3165 3165 3164 3163 3162 3161 3160 3159 3157 3155 3154 3152 3150 3149 3147 3146 3144 3143 3141 3139 3138 3136 3134 3132 3130 3128 3127 3125 3123 3121 3118 3115 3109 3104 3103 3101 3099 3097 3096 3093 3090 3087 3084 3082 3081 3080 3080 3078 3073 3069 3063 3059 3056 3042 3029 3030 3032 3027 3024 3020 3014 3009 3004 2998 2992 2988 2983 2977 2973 2968 2963
3167 3166 3166 3166 3165 3165 3166 3167 3166 3166 3166 3166 3167 3167 3167 3167 3166 3166 3166 3165 3164 3163 3162 3160 3159 3157 3156 3154 3152 3151 3149 3147 3146 3144 3143 3141 3139 3138 3136 3134 3133 3130 3128 3127 3125 3123 3121 3119 3117 3112 3106 3102 3099 3097 3095 3094 3093 3091 3088 3085 3082 3079 3078 3077 3075 3073 3068 3061 3059 3056 3040 3025 3026 3027 3022 3018 3014 3009 3005 3000 2995 2989 2983 2978 2972 2967 2962 2957
3168 3168 3168 3167 3167 3168 3168 3168 3168 3168 3168 3168 3168 3168 3168 3168 3168 3167 3167 3166 3165 3163 3162 3160 3159 3157 3156 3154 3153 3151 3149 3148 3146 3145 3143 3141 3140 3138 3136 3134 3132 3130 3128 3126 3124 3122 3120 3119 3118 3116 3114 3110 3105 3101 3098 3096 3094 3092 3090 3087 3082 3078 3076 3074 3073 3071 3066 3058 3055 3052 3038 3023 3021 3021 3017 3013 3009 3003 2999 2995 2990 2985 2979 2973 2968 2962 2956 2952
3170 3170 3170 3170 3170 3171 3170 3169 3170 3170 3170 3170 3170 3170 3170 3169 3169 3168 3167 3166 3165 3163 3162 3161 3159 3158 3157 3155 3154 3152 3150 3149 3147 3145 3144 3142 3140 3138 3136 3135 3132 3130 3128 3125 3123 3120 3118 3117 3117 3116 3117 3114 3109 3105 3102 3099 3096 3092 3088 3084 3080 3077 3074 3072 3071 3069 3065 3056 3047 3045 3038 3024 3015 3014 3012 3008 3004 2999 2994 2988 2983 2978 2973 2968 2962 2957 2951 2946
3172 3172 3172 3172 3172 3172 3172 3171 3172 3172 3172 3171 3171 3171 3171 3170 3169 3169 3167 3166 3165 3164 3162 3161 3160 3158 3157 3155 3154 3152 3151 3149 3147 3145 3144 3142 3140 3138 3136 3134 3132 3129 3127 3124 3121 3119 3117 3116 3115 3114 3112 3110 3106 3103 3100 3098 3094 3089 3085 3080 3077 3075 3072 3070 3069 3066 3063 3055 3041 3036 3036 3025 3014 3011 3009 3004 3000 2995 2989 2983 2977 2973 2967 2962 2957 2951 2945 2941
3174 3174 3174 3174 3174 3174 3174 3173 3173 3173 3173 3173 3172 3172 3171 3171 3170 3169 3167 3166 3165 3164 3163 3161 3160 3158 3156 3155 3152 3151 3149 3148 3147 3145 3143 3141 3139 3138 3136 3133 3131 3128 3126 3123 3121 3119 3117 3115 3113 3110 3107 3105 3102 3100 3097 3094 3090 3085 3081 3078 3075 3072 3069 3067 3065 3063 3060 3054 3041 3032 3030 3024 3016 3011 3007 3001 2997 2992 2985 2979 2974 2969 2962 2956 2951 2945 2940 2935
3176 3176 3176 3176 3176 3175 3175 3175 3175 3174 3174 3174 3173 3172 3172 3171 3170 3169 3168 3167 3165 3164 3163 3162 3160 3158 3157 3155 3152 3150 3147 3145 3143 3142 3141 3140 3137 3135 3134 3132 3130 3128 3125 3123 3121 3118 3116 3114 3111 3106 3103 3101 3099 3097 3094 3090 3086 3082 3078 3076 3074 3071 3068 3064 3062 3058 3054 3049 3041 3033 3027 3021 3016 3011 3004 2998 2994 2989 2981 2974 2968 2963 2956 2950 2945 2939 2935 2930
3178 3178 3177 3177 3177 3177 3177 3176 3176 3175 3175 3174 3173 3173 3172 3171 3170 3169 3168 3167 3166 3164 3163 3162 3160 3158 3157 3155 3152 3150 3147 3145 3143 3141 3139 3138 3136 3133 3132 3130 3129 3127 3125 3123 3120 3118 3115 3112 3109 3103 3098 3097 3096 3093 3090 3086 3082 3078 3076 3075 3072 3068 3064 3061 3057 3053 3047 3040 3035 3031 3023 3015 3012 3009 3001 2996 2991 2983 2975 2967 2961 2957 2951 2944 2939 2934 2929 2925
3180 3179 3178 3179 3178 3178 3178 3177 3177 3176 3176 3175 3174 3173 3172 3171 3170 3169 3168 3167 3165 3164 3163 3161 3160 3158 3157 3154 3152 3150 3147 3145 3143 3141 3138 3136 3134 3132 3130 3129 3127 3125 3123 3121 3119 3117 3114 3109 3105 3100 3095 3093 3092 3088 3085 3082 3078 3076 3075 3073 3069 3065 3060 3056 3054 3051 3045 3036 3027 3022 3017 3010 3006 3003 2996 2990 2984 2976 2968 2962 2957 2953 2948 2940 2935 2930 2926 2921
3181 3181 3180 3180 3179 3179 3178 3178 3177 3177 3176 3175 3174 3174 3173 3171 3171 3169 3168 3167 3165 3164 3163 3161 3159 3158 3156 3154 3151 3149 3147 3145 3143 3141 3139 3136 3134 3132 3130 3128 3127 3124 3122 3120 3118 3115 3112 3108 3104 3100 3095 3091 3088 3085 3082 3079 3075 3074 3073 3071 3067 3063 3058 3052 3050 3049 3046 3039 3029 3019 3012 3007 3002 2996 2988 2980 2974 2969 2962 2956 2953 2949 2944 2936 2930 2926 2923 2918